Overview Statistics Trail Chart Weather Telemetry Raw packets
 

This is the latest recevied weather packets stored in our database for station/object N5CSU. If no packets are shown the sender has not sent any weather packets the latest 10 day(s).

<< 70 71 72 73 74 75 76 >>
Time Temp. Humidity Pressure Rain* Wind** Luminosity Snow
1788120307 37.78° C 36% 1014.4 hPa 0 mm - 47 W/m² -
1788120006 37.78° C 36% 1014.5 hPa 0 mm - 25 W/m² -
1788119702 37.78° C 36% 1014.5 hPa 0 mm - 27 W/m² -
1788119399 38.33° C 35% 1014.5 hPa 0 mm - 29 W/m² -
1788119099 37.78° C 36% 1014.5 hPa 0 mm - 26 W/m² -
1788118794 37.78° C 35% 1014.8 hPa 0 mm - 52 W/m² -
1788118492 38.33° C 35% 1014.7 hPa 0 mm - 178 W/m² -
1788118188 37.78° C 36% 1014.9 hPa 0 mm - 121 W/m² -
1788117883 37.78° C 36% 1014.9 hPa 0 mm - 90 W/m² -
1788117579 37.78° C 36% 1015.1 hPa 0 mm - 240 W/m² -
1788117278 37.22° C 37% 1015.1 hPa 0 mm - 80 W/m² -
1788116968 37.22° C 37% 1015.2 hPa 0 mm - 54 W/m² -
1788116663 37.78° C 37% 1015.2 hPa 0 mm - 167 W/m² -
1788116363 37.78° C 37% 1015.3 hPa 0 mm - 24 W/m² -
1788116057 37.78° C 37% 1015.4 hPa 0 mm - 26 W/m² -
1788115753 37.78° C 37% 1015.4 hPa 0 mm - 122 W/m² -
1788115451 37.78° C 37% 1015.4 hPa 0 mm - 57 W/m² -
1788115146 37.78° C 38% 1015.4 hPa 0 mm - 32 W/m² -
1788114846 37.22° C 38% 1015.6 hPa 0 mm - 45 W/m² -
1788114541 37.78° C 38% 1015.6 hPa 0 mm - 149 W/m² -
1788114237 37.22° C 38% 1015.7 hPa 0 mm - 125 W/m² -
1788113933 37.22° C 38% 1016 hPa 0 mm - 205 W/m² -
1788113629 37.78° C 39% 1015.7 hPa 0 mm - 514 W/m² -
1788113329 37.78° C 39% 1015.7 hPa 0 mm - 206 W/m² -
1788113023 37.22° C 40% 1015.9 hPa 0 mm - 216 W/m² -

* Rain latest hour (hover to see other rain measurements)
** Current wind speed in m/s (hover to see current wind gust speed)